Theta_e
321 321 321 320 320 321 323 325 323 315 317 330 333 345 341 343 347 347 354 351 349 347 343 342 342 343 344 347 348 348 349 350 350 350 351 353 355 357
317 318 316 316 317 317 317 320 322 319 315 322 324 328 332 334 338 344 344 345 347 345 343 341 340 341 341 342 343 343 343 344 345 345 346 346 347 349
316 315 315 316 313 313 314 314 314 315 313 315 319 321 323 327 334 338 339 341 347 344 343 342 339 338 338 339 339 340 341 341 342 343 343 344 344 345
314 314 313 313 313 314 312 313 313 314 313 311 315 317 320 324 326 332 336 340 348 347 343 341 339 338 335 335 334 334 334 335 337 338 340 341 342 343
314 313 313 313 311 311 312 311 312 313 313 311 310 315 317 320 321 325 328 335 338 346 344 342 339 337 335 333 331 328 327 327 329 330 332 334 337 340
315 314 314 313 312 312 313 314 313 312 311 309 308 309 312 316 319 318 320 329 331 333 339 341 339 339 338 336 333 331 325 322 321 322 324 325 327 331
314 314 313 314 318 318 314 314 313 310 309 308 307 308 308 308 311 316 317 322 327 331 333 332 333 336 340 341 342 337 330 326 323 320 320 319 320 323
313 314 312 315 314 316 316 316 315 311 310 309 308 307 308 310 312 311 312 315 314 327 329 328 334 332 341 345 337 335 331 329 327 324 321 319 319 320
314 313 313 314 315 314 314 315 315 316 316 312 309 309 309 310 312 312 312 312 313 320 322 320 327 327 332 334 327 326 326 326 326 324 322 320 318 318
316 315 313 313 313 314 313 311 311 312 312 312 312 311 312 312 313 314 314 315 317 319 322 315 323 323 328 330 328 325 324 323 324 324 321 319 316 315
316 315 313 313 314 314 311 309 309 310 314 315 315 315 315 316 316 314 311 311 310 313 318 316 320 322 326 328 331 326 325 323 323 323 322 319 314 312
314 314 313 313 312 311 310 308 306 309 310 310 310 311 312 314 315 315 315 311 312 311 317 316 317 320 317 326 328 330 334 326 320 319 318 317 312 328
311 311 312 311 309 308 307 309 310 311 312 311 309 309 310 311 313 315 316 317 314 313 319 319 319 319 319 319 323 325 330 334 342 338 311 310 310 325
311 311 311 309 306 306 308 310 310 312 313 310 308 307 307 308 312 315 318 320 320 318 321 320 317 317 318 317 318 324 326 328 334 340 338 316 308 311
312 311 311 307 305 308 308 310 310 312 311 310 309 309 310 312 313 314 317 318 319 320 321 320 318 317 318 316 317 320 321 325 334 340 339 332 330 325
311 310 310 308 308 308 308 309 309 309 311 309 311 313 315 313 312 314 313 315 314 315 320 320 319 319 316 317 316 316 324 325 335 336 340 335 334 330
308 309 308 307 306 306 305 306 307 308 309 309 309 311 312 313 314 315 315 314 312 312 313 316 318 319 320 318 315 318 317 323 332 335 337 332 332 331
307 308 307 307 305 305 303 304 304 306 307 310 309 309 309 310 311 313 315 314 312 312 313 314 315 316 317 320 322 319 320 321 327 334 335 332 333 333
307 308 307 308 306 305 304 303 303 305 306 308 309 309 309 309 309 310 313 314 314 314 314 315 315 313 311 310 319 320 323 326 329 330 333 336 333 335
308 309 309 309 308 307 305 303 304 304 304 305 308 309 309 309 306 308 310 311 311 314 315 316 316 315 314 314 316 324 309 325 326 327 325 317 315 316
310 309 310 310 309 309 307 305 304 303 304 304 306 307 308 308 307 308 310 307 308 312 314 314 320 320 326 326 320 317 314 311 315 332 320 318 315 314
313 311 311 311 311 310 309 306 304 304 304 303 305 306 307 308 307 307 310 309 310 310 314 318 322 320 320 319 319 321 314 313 312 311 312 315 317 313
313 313 311 311 312 311 310 307 304 304 304 303 302 304 306 306 307 308 311 309 309 309 309 314 319 321 318 320 318 312 311 312 313 310 309 311 313 314
Wind_Speed
5 4 3 4 5 4 3 3 4 7 10 2 6 5 9 10 10 12 11 10 13 13 12 11 12 14 15 14 14 15 14 14 14 14 14 14 14 14
5 6 6 5 4 5 6 4 4 6 8 9 11 15 12 11 14 12 12 14 13 13 13 13 12 14 15 17 18 18 17 16 16 16 15 15 15 14
5 6 6 5 6 6 6 6 7 7 10 12 12 13 15 15 12 10 12 13 10 13 14 14 13 13 15 17 18 19 19 17 17 17 17 16 16 17
5 5 6 6 7 6 6 8 8 9 10 16 14 14 15 14 15 14 10 12 11 14 12 13 14 14 14 15 16 17 18 17 17 17 18 17 17 17
5 6 7 7 8 8 8 9 8 9 9 11 15 11 14 13 14 14 13 13 12 17 16 15 13 11 12 13 15 16 17 17 17 17 18 17 17 18
7 8 8 8 10 10 9 10 10 10 12 13 13 14 13 12 13 13 13 10 11 12 14 12 12 11 12 13 14 15 15 16 16 17 18 17 18 17
9 10 9 12 18 16 10 10 11 11 11 12 12 11 11 12 13 12 14 12 11 10 10 10 10 10 9 9 10 10 11 13 14 16 17 17 17 18
10 9 10 15 14 19 21 22 19 15 14 13 13 14 15 12 12 12 14 12 14 9 9 9 7 10 8 8 9 11 11 12 12 14 16 17 18 18
9 9 8 9 15 12 16 22 21 25 23 17 18 16 17 15 14 16 15 13 14 11 12 15 11 12 10 11 10 11 13 14 14 14 16 16 18 18
8 9 9 12 12 14 15 16 17 16 16 13 16 17 17 15 14 14 15 15 14 12 12 17 11 13 12 12 16 16 17 16 16 16 15 15 15 16
8 9 9 11 15 20 16 17 16 16 15 21 23 26 29 29 24 13 13 13 13 11 9 11 11 13 12 13 12 15 16 17 17 16 16 15 15 14
7 8 11 11 15 20 16 15 15 16 16 15 13 15 18 15 23 18 13 13 12 11 10 12 11 10 13 10 12 13 13 15 17 17 17 15 13 7
6 7 7 14 16 21 20 12 16 21 20 11 10 9 9 10 11 12 13 12 11 12 11 10 11 11 12 13 11 12 9 9 9 8 11 12 16 14
6 6 8 13 18 19 16 18 23 21 9 9 8 9 9 9 11 11 13 13 13 15 14 12 10 11 12 12 13 11 12 12 11 10 7 6 9 12
5 8 12 13 15 13 18 20 18 11 10 10 9 9 9 9 11 12 14 15 16 15 13 16 13 13 12 14 14 13 11 11 10 8 6 7 7 5
7 6 7 11 12 11 12 12 10 11 11 11 11 12 10 9 9 9 11 11 11 11 14 16 16 16 14 14 12 14 10 10 5 9 7 6 5 5
4 3 4 5 7 8 8 10 9 10 10 11 11 11 11 9 10 10 11 10 12 12 11 10 12 16 15 16 15 14 12 13 11 11 6 7 6 7
3 4 5 5 6 6 7 8 9 11 10 10 10 9 10 10 10 9 10 10 11 12 12 11 9 10 12 16 23 14 13 14 11 11 13 11 8 6
7 6 6 6 7 7 6 7 9 8 10 8 9 10 10 11 14 12 10 10 12 13 13 12 10 10 13 13 5 22 15 12 12 13 13 12 8 8
8 7 7 7 7 7 7 6 7 8 8 8 9 10 10 10 12 12 12 12 13 14 13 11 10 11 12 12 8 5 13 13 13 11 6 2 4 8
9 8 8 8 7 7 7 7 7 8 8 8 8 8 10 9 11 12 13 18 19 14 10 10 11 14 11 8 5 3 3 6 6 8 5 5 4 4
9 9 9 8 8 7 7 6 7 7 7 7 8 9 10 10 10 12 12 14 13 14 13 9 7 7 8 10 10 7 4 2 6 10 11 1 6 7
11 10 10 9 8 8 7 7 7 7 6 6 6 9 9 10 10 10 11 12 12 12 17 12 9 7 10 9 7 5 6 4 3 2 3 8 6 5
Wind_Direction
32 39 11 7 356 341 332 330 321 311 309 326 302 346 333 316 317 315 308 302 299 297 287 270 248 244 242 234 223 227 227 227 233 234 232 231 234 236
35 17 20 360 344 345 334 316 287 278 278 311 302 308 310 305 299 300 302 292 282 277 278 276 256 246 243 240 235 229 225 224 229 233 233 232 229 229
15 6 352 338 346 336 327 319 309 293 280 289 291 299 298 297 296 291 291 285 283 256 260 263 262 252 243 242 241 235 232 226 225 228 232 229 230 230
333 328 318 331 319 308 305 302 293 288 284 290 295 301 297 303 298 293 289 290 288 286 264 259 266 264 254 245 241 236 230 229 228 228 228 231 232 231
287 292 294 302 297 295 291 290 289 291 288 290 297 293 298 303 298 290 287 282 276 275 276 267 257 261 262 254 246 238 233 232 230 230 227 229 226 226
281 284 287 280 275 286 293 289 289 290 293 292 291 295 297 300 293 298 291 279 281 280 276 274 278 270 268 265 254 246 234 235 234 232 230 226 224 222
271 267 267 262 280 301 304 300 297 291 290 286 283 280 282 291 290 300 295 303 299 284 280 279 283 275 268 257 262 249 237 238 232 231 230 226 222 221
276 278 263 279 284 293 303 299 294 298 289 288 281 277 280 278 279 276 281 292 289 295 287 283 278 276 274 275 266 256 258 263 258 241 232 223 219 219
259 271 284 292 300 293 298 301 296 293 285 284 284 275 273 269 272 276 271 266 271 280 282 280 283 282 284 284 270 266 259 255 259 250 239 224 218 213
276 285 283 289 290 297 307 306 301 295 286 280 274 276 271 266 261 272 268 273 273 270 265 268 271 272 275 273 263 260 264 257 252 250 236 224 216 217
282 273 270 280 293 302 310 308 305 294 290 280 277 281 279 267 262 271 264 267 272 266 261 274 276 278 273 271 268 264 262 260 253 246 233 222 211 202
284 279 286 293 304 308 312 313 307 313 307 294 287 285 280 260 260 257 258 257 262 270 253 258 264 267 275 257 259 257 258 246 242 240 234 229 193 192
293 303 308 313 312 313 315 312 315 311 309 294 283 283 274 266 263 260 259 251 251 254 260 255 260 261 257 272 274 279 275 284 278 259 229 216 194 194
272 288 299 312 311 308 310 318 320 316 306 292 280 274 269 265 265 261 254 249 244 249 260 257 259 256 266 270 266 259 263 270 263 253 229 161 200 210
247 262 292 306 306 309 322 319 329 321 333 328 300 280 269 266 268 267 261 256 252 250 250 253 250 258 257 264 271 261 255 253 262 250 222 198 182 182
247 261 295 296 284 298 319 330 332 326 327 325 326 325 302 285 272 265 267 261 258 255 249 245 246 251 256 251 252 267 272 248 242 235 233 228 180 189
247 270 305 314 313 316 318 320 323 322 321 323 323 323 327 322 288 266 255 256 256 262 259 250 236 236 245 247 248 247 251 251 254 241 219 234 215 192
218 252 277 276 281 290 301 307 306 305 304 309 311 313 316 322 318 308 283 264 261 261 258 248 241 242 245 243 230 242 240 244 246 241 240 226 229 200
240 243 256 263 269 272 274 280 289 293 298 296 305 314 314 320 323 324 315 303 290 263 249 248 234 234 250 254 255 220 234 231 237 234 226 219 217 218
236 236 236 240 254 257 265 268 282 295 299 305 308 314 317 319 323 316 324 313 314 302 253 240 231 228 235 244 241 227 215 230 222 224 207 76 54 93
228 231 232 235 238 244 251 261 268 279 287 300 309 315 317 320 318 319 319 319 327 324 265 236 233 235 249 262 226 217 215 234 265 238 162 164 168 164
242 237 240 233 232 235 246 248 266 275 293 306 311 313 315 318 315 321 315 324 336 336 309 253 243 227 232 228 237 230 175 125 116 73 44 10 183 182
243 241 242 237 232 230 232 244 252 272 287 303 305 307 311 315 311 314 316 320 328 339 344 319 243 215 225 226 205 164 170 158 155 143 50 346 263 135